Weather History for KTAZ - April, 2013

Change the Weather History Date:

Monday, April 1, 2013

  Actual Average (KSPI) Record (KSPI)
Temperature  
Mean Temperature 37 °F 48 °F  
Max Temperature 44 °F 59 °F 88 °F (2012)
Min Temperature 28 °F 38 °F 19 °F (1899)
Degree Days  
Heating Degree Days 28 17  
Month to date heating degree days 17  
Since 1 July heating degree days 4999  
Cooling Degree Days 0 0  
Month to date cooling degree days 0  
Year to date cooling degree days 2  
Moisture  
Dew Point 23 °F    
Average Humidity 57    
Maximum Humidity 75    
Minimum Humidity 36    
Precipitation  
Precipitation 0.00 in 0.10 in 0.92 in (1970)
Month to date precipitation 0.10  
Year to date precipitation 6.36  
Snow  
Snow 0.00 in 0.00 in 0.40 in (1993)
Month to date snowfall 0.0  
Since 1 July snowfall 20.6  
Snow Depth -    
Sea Level Pressure  
Sea Level Pressure 30.13 in    
Wind  
Wind Speed 13 mph (NW)    
Max Wind Speed 21 mph    
Max Gust Speed 24 mph    
Visibility 10 miles    
Events      
T = Trace of Precipitation, MM = Missing Value Source: NWS Daily Summary

Daily Weather History Graph

Daily Weather History Graph

Search for Another Location

Airport or City:

Trip Planner

Search our weather history database for the weather conditions in past years. The results will help you decide how hot, cold, wet, or windy it might be!

Date:

Astronomy

Apr. 01, 2013 Rise Set
Actual Time 6:41 AM CDT 7:21 PM CDT
Civil Twilight 6:14 AM CDT 7:48 PM CDT
Nautical Twilight 5:42 AM CDT 8:20 PM CDT
Astronomical Twilight 5:09 AM CDT 8:53 PM CDT
Moon 12:28 AM CDT (4/1) 10:28 AM CDT (4/1)
Length of Visible Light 13h 34m
Length of Day
12h 40m
Waning Gibbous, 67% of the Moon is Illuminated
Apr 1
Waning Gibbous
Apr 2
Last Quarter
Apr 10
New
Apr 18
First Quarter
Apr 25
Full

Hourly Weather History & Observations

Time (CDT) Temp. Windchill Dew Point Humidity Pressure Visibility Wind Dir Wind Speed Gust Speed Precip Events Conditions
12:15 AM 39.2 °F 31.6 °F 30.2 °F 70% 29.95 in 10.0 mi NNW 12.7 mph - N/A   Clear
12:35 AM 39.2 °F 31.2 °F 30.2 °F 70% 29.96 in 10.0 mi NNW 13.8 mph - N/A   Clear
12:55 AM 39.2 °F 29.3 °F 30.2 °F 70% 29.96 in 10.0 mi NNW 20.7 mph 24.2 mph N/A   Clear
1:15 AM 37.4 °F 28.5 °F 28.4 °F 70% 29.97 in 10.0 mi NNW 15.0 mph - N/A   Scattered Clouds
1:35 AM 37.4 °F 28.9 °F 28.4 °F 70% 29.97 in 10.0 mi NNW 13.8 mph 19.6 mph N/A   Clear
1:55 AM 37.4 °F 28.5 °F 26.6 °F 65% 29.98 in 10.0 mi NNW 15.0 mph - N/A   Clear
2:15 AM 37.4 °F 28.9 °F 26.6 °F 65% 29.99 in 10.0 mi NNW 13.8 mph - N/A   Scattered Clouds
2:35 AM 37.4 °F 28.9 °F 26.6 °F 65% 29.99 in 10.0 mi NNW 13.8 mph - N/A   Mostly Cloudy
2:55 AM 37.4 °F 27.8 °F 26.6 °F 65% 30.00 in 10.0 mi NNW 17.3 mph 23.0 mph N/A   Scattered Clouds
3:15 AM 37.4 °F 28.2 °F 26.6 °F 65% 30.02 in 10.0 mi NNW 16.1 mph 19.6 mph N/A   Mostly Cloudy
3:35 AM 37.4 °F 28.2 °F 26.6 °F 65% 30.02 in 10.0 mi NNW 16.1 mph 20.7 mph N/A   Mostly Cloudy
3:55 AM 35.6 °F 26.6 °F 26.6 °F 70% 30.02 in 10.0 mi NNW 13.8 mph - N/A   Overcast
4:15 AM 35.6 °F 25.5 °F 26.6 °F 70% 30.03 in 10.0 mi North 17.3 mph 21.9 mph N/A   Overcast
4:35 AM 35.6 °F 25.2 °F 26.6 °F 70% 30.04 in 10.0 mi North 18.4 mph - N/A   Overcast
4:55 AM 33.8 °F 23.9 °F 26.6 °F 75% 30.04 in 10.0 mi NNW 15.0 mph - N/A   Overcast
5:15 AM 35.6 °F 27.1 °F 24.8 °F 65% 30.04 in 10.0 mi NNW 12.7 mph 20.7 mph N/A   Scattered Clouds
5:35 AM 33.8 °F 25.3 °F 24.8 °F 70% 30.05 in 10.0 mi NNW 11.5 mph - N/A   Mostly Cloudy
5:55 AM 33.8 °F 25.3 °F 24.8 °F 70% 30.06 in 10.0 mi NNW 11.5 mph - N/A   Overcast
6:15 AM 33.8 °F 24.3 °F 24.8 °F 70% 30.07 in 10.0 mi NNW 13.8 mph - N/A   Mostly Cloudy
6:35 AM 33.8 °F 26.4 °F 24.8 °F 70% 30.08 in 10.0 mi NNW 9.2 mph - N/A   Mostly Cloudy
6:55 AM 33.8 °F 24.3 °F 24.8 °F 70% 30.10 in 10.0 mi NNW 13.8 mph - N/A   Mostly Cloudy
7:15 AM 32.0 °F 21.2 °F 23.0 °F 69% 30.11 in 10.0 mi NNW 16.1 mph 20.7 mph N/A   Mostly Cloudy
7:35 AM 32.0 °F 22.1 °F 24.8 °F 75% 30.12 in 10.0 mi NNW 13.8 mph - N/A   Scattered Clouds
7:55 AM 33.8 °F 24.3 °F 24.8 °F 70% 30.13 in 10.0 mi NNW 13.8 mph - N/A   Clear
8:15 AM 33.8 °F 23.9 °F 24.8 °F 70% 30.14 in 10.0 mi NW 15.0 mph - N/A   Clear
8:35 AM 33.8 °F 23.9 °F 24.8 °F 70% 30.14 in 10.0 mi NNW 15.0 mph - N/A   Clear
8:55 AM 33.8 °F 23.9 °F 24.8 °F 70% 30.15 in 10.0 mi NNW 15.0 mph - N/A   Clear
9:15 AM 35.6 °F 26.6 °F 23.0 °F 60% 30.15 in 10.0 mi North 13.8 mph - N/A   Clear
9:35 AM 35.6 °F 27.1 °F 23.0 °F 60% 30.16 in 10.0 mi North 12.7 mph - N/A   Clear
9:55 AM 35.6 °F 27.5 °F 24.8 °F 65% 30.17 in 10.0 mi NW 11.5 mph - N/A   Clear
10:15 AM 37.4 °F 29.3 °F 24.8 °F 60% 30.17 in 10.0 mi NNW 12.7 mph - N/A   Clear
10:35 AM 37.4 °F 28.5 °F 23.0 °F 56% 30.17 in 10.0 mi NW 15.0 mph - N/A   Clear
10:55 AM 37.4 °F 31.4 °F 23.0 °F 56% 30.18 in 10.0 mi NNW 8.1 mph - N/A   Clear
11:15 AM 39.2 °F 35.0 °F 23.0 °F 52% 30.18 in 10.0 mi NW 5.8 mph - N/A   Scattered Clouds
11:35 AM 39.2 °F 33.6 °F 23.0 °F 52% 30.18 in 10.0 mi NW 8.1 mph - N/A   Scattered Clouds
11:55 AM 39.2 °F 31.2 °F 21.2 °F 49% 30.18 in 10.0 mi NW 13.8 mph 17.3 mph N/A   Scattered Clouds
12:15 PM 39.2 °F 32.5 °F 21.2 °F 49% 30.17 in 10.0 mi NW 10.4 mph 18.4 mph N/A   Clear
12:35 PM 41.0 °F 35.2 °F 21.2 °F 45% 30.17 in 10.0 mi NNW 9.2 mph 17.3 mph N/A   Clear
12:55 PM 42.8 °F 37.5 °F 21.2 °F 42% 30.17 in 10.0 mi WNW 9.2 mph - N/A   Clear
1:15 PM 41.0 °F 35.2 °F 21.2 °F 45% 30.17 in 10.0 mi WNW 9.2 mph - N/A   Scattered Clouds
1:35 PM 44.6 °F 39.2 °F 23.0 °F 43% 30.16 in 10.0 mi WNW 10.4 mph 18.4 mph N/A   Scattered Clouds
1:55 PM 44.6 °F 38.4 °F 24.8 °F 46% 30.16 in 10.0 mi NNW 12.7 mph - N/A   Scattered Clouds
2:15 PM 44.6 °F 39.2 °F 21.2 °F 39% 30.16 in 10.0 mi NW 10.4 mph 19.6 mph N/A   Clear
2:35 PM 44.6 °F 39.7 °F 24.8 °F 46% 30.16 in 10.0 mi NNW 9.2 mph - N/A   Scattered Clouds
2:55 PM 42.8 °F 36.6 °F 21.2 °F 42% 30.16 in 10.0 mi WNW 11.5 mph 19.6 mph N/A   Scattered Clouds
3:15 PM 44.6 °F 38.8 °F 24.8 °F 46% 30.16 in 10.0 mi NW 11.5 mph 18.4 mph N/A   Scattered Clouds
3:35 PM 44.6 °F 38.8 °F 24.8 °F 46% 30.16 in 10.0 mi NNW 11.5 mph - N/A   Scattered Clouds
3:55 PM 44.6 °F 38.4 °F 21.2 °F 39% 30.16 in 10.0 mi WNW 12.7 mph 19.6 mph N/A   Scattered Clouds
4:15 PM 44.6 °F 38.1 °F 19.4 °F 37% 30.16 in 10.0 mi West 13.8 mph 20.7 mph N/A   Clear
4:35 PM 44.6 °F 37.4 °F 21.2 °F 39% 30.16 in 10.0 mi WNW 16.1 mph 24.2 mph N/A   Clear
4:55 PM 44.6 °F 38.1 °F 19.4 °F 37% 30.16 in 10.0 mi NW 13.8 mph 19.6 mph N/A   Clear
5:15 PM 44.6 °F 37.8 °F 19.4 °F 37% 30.16 in 10.0 mi WNW 15.0 mph 19.6 mph N/A   Clear
5:35 PM 42.8 °F 36.2 °F 19.4 °F 39% 30.16 in 10.0 mi WNW 12.7 mph 20.7 mph N/A   Clear
5:55 PM 42.8 °F 35.8 °F 17.6 °F 36% 30.16 in 10.0 mi NW 13.8 mph 19.6 mph N/A   Clear
6:15 PM 42.8 °F 36.2 °F 17.6 °F 36% 30.16 in 10.0 mi WNW 12.7 mph 18.4 mph N/A   Clear
6:35 PM 42.8 °F 37.0 °F 17.6 °F 36% 30.17 in 10.0 mi NW 10.4 mph - N/A   Clear
6:55 PM 41.0 °F 34.3 °F 17.6 °F 39% 30.17 in 10.0 mi NW 11.5 mph - N/A   Clear
7:15 PM 39.2 °F 32.0 °F 17.6 °F 42% 30.17 in 10.0 mi WNW 11.5 mph - N/A   Clear
7:35 PM 37.4 °F 30.3 °F 17.6 °F 45% 30.17 in 10.0 mi NW 10.4 mph - N/A   Clear
7:55 PM 37.4 °F 32.8 °F 19.4 °F 48% 30.17 in 10.0 mi NW 5.8 mph - N/A   Clear
8:15 PM 35.6 °F 30.7 °F 19.4 °F 52% 30.18 in 10.0 mi NW 5.8 mph - N/A   Clear
8:35 PM 35.6 °F 29.9 °F 19.4 °F 52% 30.18 in 10.0 mi NW 6.9 mph - N/A   Clear
8:55 PM 33.8 °F 28.6 °F 19.4 °F 56% 30.19 in 10.0 mi NW 5.8 mph - N/A   Clear
9:15 PM 33.8 °F 27.0 °F 17.6 °F 52% 30.20 in 10.0 mi NW 8.1 mph - N/A   Clear
9:35 PM 33.8 °F 28.6 °F 19.4 °F 56% 30.20 in 10.0 mi NNW 5.8 mph - N/A   Clear
9:55 PM 33.8 °F 27.7 °F 19.4 °F 56% 30.20 in 10.0 mi NW 6.9 mph - N/A   Clear
10:15 PM 33.8 °F 27.7 °F 19.4 °F 56% 30.20 in 10.0 mi NNW 6.9 mph - N/A   Clear
10:35 PM 32.0 °F 24.8 °F 19.4 °F 60% 30.20 in 10.0 mi NNW 8.1 mph - N/A   Clear
10:55 PM 30.2 °F 24.3 °F 21.2 °F 69% 30.21 in 10.0 mi NNW 5.8 mph - N/A   Clear
11:15 PM 30.2 °F 24.3 °F 21.2 °F 69% 30.21 in 10.0 mi NNW 5.8 mph - N/A   Clear
11:35 PM 30.2 °F 23.4 °F 21.2 °F 69% 30.22 in 10.0 mi NNW 6.9 mph - N/A   Clear
11:55 PM 28.4 °F 21.2 °F 21.2 °F 74% 30.22 in 10.0 mi NNW 6.9 mph - N/A   Clear